TimeEST,TemperatureF,Dew PointF,Humidity,Sea Level PressureIn,VisibilityMPH,Wind Direction,Wind SpeedMPH,Gust SpeedMPH,PrecipitationIn,Events,Conditions,WindDirDegrees,DateUTC
12:25 AM,51.8,48.2,88,30.10,7.0,WSW,8.1,-,N/A,,Overcast,240,2012-12-03 05:25:00
12:45 AM,51.8,48.2,88,30.10,3.0,SW,6.9,16.1,N/A,,Overcast,230,2012-12-03 05:45:00
12:53 AM,50.0,48.9,96,30.10,4.0,WSW,6.9,-,N/A,,Overcast,240,2012-12-03 05:53:00
1:53 AM,51.1,48.9,92,30.09,6.0,WSW,8.1,-,N/A,,Overcast,240,2012-12-03 06:53:00
2:53 AM,50.0,48.9,96,30.09,6.0,WSW,8.1,-,N/A,,Overcast,240,2012-12-03 07:53:00
3:53 AM,51.1,48.9,92,30.09,6.0,West,5.8,-,N/A,,Overcast,260,2012-12-03 08:53:00
4:53 AM,50.0,48.0,93,30.10,5.0,Variable,4.6,-,N/A,,Overcast,0,2012-12-03 09:53:00
5:11 AM,50.0,48.2,94,30.10,5.0,WNW,4.6,-,N/A,,Overcast,300,2012-12-03 10:11:00
5:53 AM,50.0,46.9,89,30.12,5.0,Variable,3.5,-,N/A,,Mostly Cloudy,0,2012-12-03 10:53:00
6:06 AM,48.2,46.4,93,30.13,5.0,West,3.5,-,N/A,,Scattered Clouds,260,2012-12-03 11:06:00
6:53 AM,48.0,45.0,89,30.14,3.0,Calm,Calm,-,N/A,,Clear,0,2012-12-03 11:53:00
7:03 AM,46.4,44.6,93,30.13,2.0,WSW,3.5,-,N/A,,Clear,250,2012-12-03 12:03:00
7:12 AM,46.4,44.6,93,30.13,1.5,West,3.5,-,N/A,,Clear,260,2012-12-03 12:12:00
7:53 AM,48.0,46.0,93,30.16,1.8,West,4.6,-,N/A,,Clear,260,2012-12-03 12:53:00
8:00 AM,48.2,46.4,93,30.15,2.0,West,3.5,-,N/A,,Clear,270,2012-12-03 13:00:00
8:20 AM,48.2,46.4,93,30.16,2.0,West,5.8,-,N/A,,Scattered Clouds,260,2012-12-03 13:20:00
8:28 AM,48.2,46.4,93,30.16,2.0,West,5.8,-,N/A,,Mostly Cloudy,280,2012-12-03 13:28:00
8:53 AM,48.9,48.0,97,30.17,2.0,Calm,Calm,-,N/A,,Mostly Cloudy,0,2012-12-03 13:53:00
9:02 AM,50.0,48.2,94,30.17,3.0,Calm,Calm,-,N/A,,Scattered Clouds,0,2012-12-03 14:02:00
10:53 AM,57.0,44.1,62,30.16,10.0,NNW,15.0,19.6,N/A,,Clear,340,2012-12-03 15:53:00
11:53 AM,57.9,44.1,60,30.15,10.0,NNW,11.5,17.3,N/A,,Clear,340,2012-12-03 16:53:00
12:53 PM,57.9,43.0,58,30.15,10.0,NW,8.1,-,N/A,,Clear,320,2012-12-03 17:53:00
1:53 PM,59.0,42.1,53,30.14,10.0,NNW,8.1,-,N/A,,Clear,340,2012-12-03 18:53:00
2:53 PM,59.0,41.0,51,30.16,10.0,Variable,3.5,-,N/A,,Clear,0,2012-12-03 19:53:00
3:53 PM,55.9,39.9,55,30.19,10.0,WNW,3.5,-,N/A,,Clear,300,2012-12-03 20:53:00
4:53 PM,53.1,39.9,61,30.20,10.0,Calm,Calm,-,N/A,,Clear,0,2012-12-03 21:53:00
5:53 PM,48.9,39.0,69,30.24,10.0,Calm,Calm,-,N/A,,Clear,0,2012-12-03 22:53:00
6:53 PM,48.0,39.0,71,30.26,10.0,North,3.5,-,N/A,,Clear,350,2012-12-03 23:53:00
7:53 PM,45.0,37.9,76,30.27,10.0,Calm,Calm,-,N/A,,Clear,0,2012-12-04 00:53:00
8:53 PM,39.9,37.0,89,30.27,10.0,NNE,4.6,-,N/A,,Clear,30,2012-12-04 01:53:00
9:53 PM,37.9,36.0,93,30.27,10.0,Calm,Calm,-,N/A,,Clear,0,2012-12-04 02:53:00
10:53 PM,37.9,36.0,93,30.29,10.0,Calm,Calm,-,N/A,,Clear,0,2012-12-04 03:53:00
11:53 PM,35.1,33.1,92,30.30,10.0,Calm,Calm,-,N/A,,Clear,0,2012-12-04 04:53:00